Probability
0 0 0 0 0 0 1 1 1 0 0 0 0 0 0 0 0 0 0 0 0 0 0 1 3 4 2 1 1 2 1 0 0 0 0 1 1 1 0 0 0 0 0
0 0 0 0 0 0 0 1 1 1 0 0 0 0 0 0 0 0 0 0 0 0 0 2 4 4 2 1 1 2 2 1 0 0 0 0 1 0 0 0 0 0 0
0 0 0 0 0 0 0 0 1 1 0 0 0 0 0 0 0 0 0 0 0 0 0 2 4 3 2 1 1 2 3 2 1 0 1 1 1 1 0 0 0 0 0
0 0 0 0 0 0 0 0 0 0 0 0 0 0 0 0 0 0 0 0 0 0 0 1 2 2 1 0 0 1 3 3 1 1 2 3 2 1 0 0 0 0 0
0 0 0 0 0 0 0 0 0 0 0 0 0 0 0 0 0 0 0 0 0 0 0 0 0 0 0 0 0 1 2 3 3 3 3 3 2 1 0 0 0 0 0
0 0 0 0 0 0 0 0 0 0 0 0 0 0 0 0 0 0 0 0 0 0 0 0 0 0 0 0 0 1 2 3 3 3 3 3 2 1 0 0 0 0 0
0 0 0 0 0 0 0 0 0 0 0 0 0 0 0 0 0 0 0 0 0 0 0 0 0 0 0 0 0 0 2 3 4 3 3 1 1 1 1 0 0 0 0
0 0 0 0 0 0 0 0 0 0 0 0 0 0 0 0 0 0 0 0 0 0 0 0 0 0 0 0 0 0 1 3 4 4 3 1 1 1 1 1 1 1 1
0 0 0 0 0 0 0 0 0 0 0 0 0 0 0 0 0 0 0 0 0 0 0 0 0 0 0 0 0 0 0 2 4 4 4 2 1 2 2 1 0 0 0
0 0 0 0 0 0 0 0 0 0 0 0 0 0 0 0 0 0 0 0 0 0 0 0 0 0 0 0 0 0 0 1 3 4 4 3 2 3 4 2 0 0 0
0 0 0 0 0 0 0 0 0 0 0 0 0 0 0 0 0 0 0 0 0 0 0 0 0 0 0 0 0 0 0 0 1 2 3 3 3 4 4 3 1 0 0
0 0 0 0 0 0 0 0 0 0 0 0 0 0 0 0 0 0 0 0 0 0 0 0 0 0 0 0 0 0 0 0 0 1 3 3 4 4 4 3 2 1 0
0 0 0 0 0 0 0 0 0 0 0 0 0 0 0 0 0 0 0 0 0 0 0 0 0 0 0 0 0 0 0 0 0 1 2 3 4 4 3 2 1 1 1
0 0 0 0 0 0 0 0 0 0 0 0 0 0 0 0 0 0 0 0 0 0 0 0 0 0 0 0 0 0 0 0 0 1 2 2 2 2 1 0 0 0 0
0 0 0 0 0 0 0 0 0 0 0 0 0 0 0 0 0 0 0 0 0 0 0 0 0 0 0 0 0 0 0 0 0 0 1 1 0 0 0 0 0 0 0
0 0 0 0 0 0 0 0 0 0 0 0 0 0 0 0 0 0 0 0 0 0 0 0 0 0 0 0 0 0 0 0 0 0 0 0 0 0 0 0 0 0 0
0 0 0 0 0 0 0 0 0 0 0 0 0 0 0 0 0 0 0 0 0 0 0 0 0 0 0 0 0 0 0 0 0 0 0 0 0 0 0 0 0 0 0
0 0 0 0 0 0 0 0 0 0 0 0 0 0 0 0 0 0 0 0 0 0 0 0 0 0 0 0 0 0 0 0 0 0 0 0 0 0 0 0 0 0 0
0 0 0 0 0 0 0 0 0 0 0 0 0 0 0 0 0 0 0 0 0 0 0 0 0 0 0 0 0 0 0 0 0 0 0 0 0 0 0 0 0 0 0
0 0 0 0 0 0 0 0 0 0 0 0 0 0 0 0 0 0 0 0 0 0 0 0 0 0 0 0 0 0 0 0 0 0 0 0 0 0 0 0 0 0 0
0 0 0 0 0 0 0 0 0 0 0 0 0 0 0 0 0 0 0 0 0 0 0 0 0 0 0 0 0 0 0 0 0 0 0 0 0 0 0 0 0 0 0
0 0 0 0 0 0 0 0 0 0 0 0 0 0 0 0 0 0 0 0 0 0 0 0 0 0 0 0 0 0 0 0 0 0 0 0 0 0 0 0 0 0 0
0 0 0 0 0 0 0 0 0 0 0 0 0 0 0 0 0 0 0 0 0 0 0 0 0 0 0 0 0 0 0 0 0 0 0 0 0 0 0 0 0 0 0
0 0 0 0 0 0 0 0 0 0 0 0 0 0 0 0 0 0 0 0 0 0 0 0 0 0 0 0 0 0 0 0 0 0 0 0 0 0 0 0 0 0 0
0 0 0 0 0 0 0 0 0 0 0 0 0 0 0 0 0 0 0 0 0 0 0 0 0 0 0 0 0 0 0 0 0 0 0 0 0 0 0 0 0 0 0
0 0 0 0 0 0 0 0 0 0 0 0 0 0 0 0 0 0 0 0 0 0 0 0 0 0 0 0 0 0 0 0 0 0 0 0 0 0 0 0 0 0 0
Wind_Speed
3 3 3 3 3 3 3 3 3 4 4 4 4 4 4 4 4 4 4 10 11 10 9 8 7 6 5 4 4 3 1 2 2 3 3 3 3 3 2 2 2 1 1
3 3 3 3 3 3 2 2 3 3 3 3 4 4 3 3 4 4 4 6 11 11 10 9 8 7 6 5 4 4 3 2 2 2 1 2 2 2 2 1 1 1 1
3 3 3 3 2 2 3 3 3 3 3 3 4 4 3 3 3 4 4 3 5 9 11 10 9 9 7 6 5 4 4 3 2 1 1 1 2 2 1 1 1 1 1
3 3 2 2 3 3 3 3 3 3 3 3 3 3 3 3 3 3 3 4 3 4 7 11 11 10 9 7 6 6 5 4 4 3 2 2 2 2 2 2 2 2 1
3 2 2 2 3 3 3 3 3 2 2 3 2 2 2 2 3 3 3 4 4 4 3 7 11 11 10 9 8 7 6 5 5 4 4 3 3 3 3 3 3 3 2
3 2 2 3 3 3 3 3 2 2 2 2 2 2 2 2 2 2 3 3 3 4 4 4 4 6 10 10 9 8 7 6 5 5 5 4 4 4 4 4 4 4 4
3 2 2 3 3 2 2 2 1 2 2 2 2 2 2 2 2 2 2 2 4 4 4 4 3 3 4 9 9 9 8 7 6 6 6 5 6 5 5 6 5 5 5
2 2 2 2 2 2 3 3 2 1 2 2 1 1 2 2 2 2 2 2 3 3 4 5 4 4 3 3 7 10 9 9 8 7 7 7 7 7 7 7 6 7 7
2 2 2 2 2 2 2 2 2 1 1 2 1 1 0 1 3 2 2 2 3 3 3 3 4 4 4 3 4 7 10 10 9 8 8 8 8 8 8 8 8 7 7
2 2 2 2 2 2 2 2 2 1 1 1 1 1 0 1 1 3 2 2 3 3 3 4 4 4 4 3 5 9 10 11 10 10 10 10 10 9 8 8 9 9 8
2 2 2 2 2 1 1 2 2 1 1 0 0 1 1 1 0 1 3 3 3 2 2 3 3 3 3 3 4 7 11 11 11 11 11 11 11 10 10 9 9 9 9
1 1 1 1 1 1 1 1 1 1 0 0 0 0 1 1 1 1 3 4 4 4 4 3 2 2 2 3 5 11 12 11 12 12 12 12 11 11 11 10 9 10 10
1 1 1 1 1 1 1 1 1 1 1 0 1 1 1 1 1 1 2 3 4 4 3 2 2 2 3 3 4 11 11 12 13 13 13 12 11 10 10 10 10 10 11
1 1 1 1 1 1 1 0 0 1 1 1 1 1 1 1 1 1 2 2 4 4 3 3 2 2 3 3 6 10 7 13 13 14 14 12 10 9 9 9 10 10 11
1 1 1 1 1 1 1 0 0 1 1 1 2 2 1 2 1 1 2 2 2 4 5 3 2 2 3 4 8 6 5 11 13 13 13 11 10 9 9 9 9 9 9
1 1 1 1 1 1 1 1 1 1 1 2 2 2 2 2 2 2 2 2 3 4 6 3 3 4 5 6 10 6 6 13 13 13 12 11 11 10 10 9 8 9 9
2 2 2 2 2 2 2 1 2 2 2 2 2 2 3 3 2 2 2 3 3 4 6 6 4 5 6 6 7 6 6 6 6 12 13 12 11 10 9 9 9 10 9
2 2 2 2 2 2 2 2 3 3 3 3 3 3 4 3 3 3 3 4 4 4 5 7 6 5 6 6 6 7 7 6 5 10 11 11 10 10 9 9 10 10 10
2 2 2 2 3 3 3 3 4 4 4 5 4 4 5 4 4 4 4 4 4 4 4 5 6 5 5 5 6 7 6 5 6 7 9 10 10 10 10 10 10 10 10
2 2 2 3 3 3 3 4 4 5 5 5 5 5 5 5 6 5 5 5 5 5 5 5 6 5 5 5 4 5 6 4 5 6 7 8 9 10 10 10 9 10 9
2 2 2 2 3 3 4 4 5 5 5 5 5 5 6 7 9 7 6 5 5 5 5 5 6 5 5 4 4 4 7 6 5 4 4 4 5 4 5 8 8 9 10
1 1 2 2 3 3 7 8 6 4 4 5 4 4 5 6 8 10 11 10 9 7 6 5 5 6 6 6 5 5 6 6 6 2 4 6 4 5 4 4 8 10 10
1 2 2 2 3 6 9 9 9 4 3 3 4 4 4 5 7 5 8 11 11 13 13 8 7 7 7 6 6 7 7 7 7 5 5 7 4 6 5 6 10 11 10
2 2 2 3 3 5 9 9 9 3 3 4 4 4 5 5 6 7 6 7 7 7 9 7 6 7 7 6 7 7 8 7 7 5 4 6 5 5 6 5 9 10 10
1 2 2 3 3 5 9 10 9 2 3 4 4 5 5 5 10 12 7 6 7 7 9 12 12 11 12 12 9 5 5 5 7 5 3 4 5 6 5 5 6 8 9
2 2 3 2 3 4 8 9 8 2 3 3 4 5 8 9 11 11 6 5 7 7 6 6 8 9 7 8 10 5 4 5 6 5 3 3 4 4 5 3 3 3 4
Wind_Direction
38 33 30 27 20 20 26 28 29 28 28 27 30 34 29 23 17 15 4 19 23 20 18 15 14 20 19 17 18 30 36 42 50 48 39 40 36 35 48 61 62 70 77
42 33 32 26 19 17 19 31 34 30 26 26 28 27 25 20 19 19 15 14 19 20 21 22 16 15 15 12 13 24 33 36 26 21 10 19 16 21 26 33 31 18 357
48 39 33 20 8 14 24 27 30 34 33 28 24 18 21 21 19 20 20 23 11 16 20 18 14 11 7 2 3 5 5 357 344 342 343 325 313 324 340 2 11 356 334
50 46 37 16 5 18 26 31 23 32 28 20 15 11 12 13 16 20 28 27 19 16 12 16 14 10 3 356 353 355 355 352 346 331 312 304 297 295 301 301 308 312 308
46 51 38 16 17 25 25 25 29 22 18 13 4 11 11 15 9 21 26 24 20 16 12 10 8 4 2 357 352 347 340 337 331 326 314 296 288 286 283 280 285 284 282
41 47 42 25 24 35 28 25 25 26 14 359 6 7 358 4 18 24 19 18 16 13 7 5 1 356 359 356 352 343 334 326 322 317 305 299 295 287 275 271 272 273 271
43 44 41 31 26 36 30 20 19 27 14 356 19 3 354 4 21 26 14 15 12 4 2 0 360 355 345 352 349 343 339 330 319 313 306 299 292 289 287 274 269 270 272
40 49 48 39 28 39 33 21 25 22 4 16 40 20 347 341 358 354 356 8 360 352 356 354 354 353 344 340 343 348 345 340 330 324 319 301 294 290 288 285 281 271 268
34 46 50 47 35 44 38 22 24 47 16 358 30 88 100 287 322 320 340 353 349 352 340 337 345 346 342 343 333 339 343 337 330 323 322 316 305 294 288 287 281 280 272
32 35 46 48 42 39 36 20 29 27 65 356 354 15 173 193 283 314 315 326 334 338 331 330 332 329 336 337 336 340 341 337 330 324 318 314 309 301 299 289 285 281 279
28 31 39 41 37 31 27 26 26 28 40 148 303 315 317 333 259 256 296 313 318 306 310 305 305 312 324 330 328 328 335 332 324 319 316 313 310 303 297 290 284 285 280
3 16 38 34 21 21 16 8 16 29 23 109 237 240 237 233 255 261 281 299 301 297 301 290 292 299 307 318 321 330 330 325 320 314 312 310 307 306 301 293 289 288 281
292 296 357 353 342 340 337 353 22 357 330 273 230 236 239 248 239 249 276 292 296 299 294 288 279 294 313 313 311 323 324 320 316 312 309 307 308 307 304 301 293 287 282
240 249 265 280 289 303 328 345 359 299 309 275 269 252 253 262 254 247 251 280 298 294 281 280 290 283 308 309 308 319 312 316 311 309 306 304 305 302 299 298 296 291 286
243 244 240 261 278 282 280 279 262 273 264 258 258 251 240 258 255 249 244 238 254 283 288 283 291 298 305 307 308 306 298 309 312 309 308 308 305 300 297 294 292 294 289
241 236 249 250 261 265 263 257 268 264 262 264 251 243 241 248 252 251 246 248 242 254 274 280 284 298 305 305 307 306 299 309 308 310 309 308 303 300 297 294 294 292 291
229 232 244 246 248 254 255 253 260 257 262 266 257 244 247 246 246 249 247 248 250 246 266 283 284 295 296 298 303 299 294 290 292 302 304 301 299 296 293 294 294 293 290
235 235 237 244 248 248 249 249 258 258 256 257 252 250 255 252 248 250 247 250 254 249 256 279 289 289 287 291 294 297 297 296 287 293 300 300 300 295 292 290 290 290 288
244 248 239 242 249 248 249 250 249 251 253 252 246 245 251 248 253 252 250 251 255 262 254 267 282 283 283 287 295 295 291 287 292 295 301 300 295 295 292 287 286 284 285
230 243 246 248 253 253 249 251 251 251 253 254 247 245 245 241 245 247 251 251 254 259 257 262 273 279 280 281 283 295 298 292 295 298 292 293 291 292 291 287 283 282 280
240 247 251 259 264 257 245 247 249 250 254 258 253 249 249 254 256 255 256 250 250 252 256 264 272 280 285 289 286 288 292 297 291 278 282 288 283 271 272 277 275 275 275
249 255 251 251 262 270 273 275 276 256 260 259 261 259 258 266 273 278 282 279 272 265 265 266 274 276 281 280 285 287 293 296 295 279 289 290 282 274 266 257 273 277 273
235 256 263 259 265 276 284 286 287 284 265 263 262 265 271 272 282 274 279 282 280 279 276 273 273 271 273 272 278 282 282 281 281 285 289 287 280 273 271 271 277 276 274
223 242 260 265 273 284 293 293 294 292 274 263 259 255 260 266 268 270 262 265 262 266 269 266 260 264 270 269 263 271 278 282 279 276 271 278 284 281 285 274 270 268 273
239 248 256 258 270 289 300 300 304 277 272 269 267 265 266 261 275 282 278 273 274 273 279 275 275 278 283 284 282 279 281 286 289 286 268 268 284 294 285 275 264 270 276
231 262 281 275 272 282 296 304 311 290 280 278 275 271 280 284 287 293 285 272 275 278 278 280 279 280 279 279 282 269 266 273 284 286 267 270 283 303 295 277 266 270 274